This is the latest recevied weather packets stored in our database for station/object KC5AV. If no packets are shown the sender has not sent any weather packets the latest 10 day(s).
| Time | Temp. | Humidity | Pressure | Rain* | Wind** | Luminosity | Snow |
|---|---|---|---|---|---|---|---|
| 1777743040 | 22.22° C | 51% | 1022.2 hPa | 0 mm | - | 730 W/m² | - |
| 1777742737 | 21.67° C | 48% | 1022 hPa | 0 mm | - | 730 W/m² | - |
| 1777742433 | 22.22° C | 45% | 1022 hPa | 0 mm | - | 782 W/m² | - |
| 1777742129 | 21.67° C | 49% | 1022.1 hPa | 0 mm | - | 777 W/m² | - |
| 1777741827 | 22.22° C | 44% | 1022.3 hPa | 0 mm | - | 778 W/m² | - |
| 1777741523 | 22.22° C | 45% | 1022.5 hPa | 0 mm | - | 765 W/m² | - |
| 1777741221 | 22.22° C | 45% | 1022.5 hPa | 0 mm | - | 765 W/m² | - |
| 1777740917 | 22.22° C | 57% | 1022.6 hPa | 0 mm | - | 775 W/m² | - |
| 1777740614 | 22.22° C | 47% | 1022.5 hPa | 0 mm | - | 794 W/m² | - |
| 1777740310 | 22.22° C | 49% | 1022.5 hPa | 0 mm | - | 778 W/m² | - |
| 1777739834 | 21.67° C | 49% | 1022.3 hPa | 0 mm | - | 726 W/m² | - |
| 1777739531 | 21.67° C | 49% | 1022.3 hPa | 0 mm | - | 726 W/m² | - |
| 1777739228 | 21.67° C | 50% | 1022.5 hPa | 0 mm | - | 730 W/m² | - |
| 1777738924 | 21.11° C | 53% | 1022.3 hPa | 0 mm | - | 723 W/m² | - |
| 1777738622 | 21.67° C | 54% | 1022.5 hPa | 0 mm | - | 708 W/m² | - |
| 1777738318 | 21.67° C | 55% | 1022.3 hPa | 0 mm | - | 687 W/m² | - |
| 1777738016 | 20.56° C | 59% | 1022.5 hPa | 0 mm | - | 699 W/m² | - |
| 1777737715 | 21.67° C | 53% | 1022.4 hPa | 0 mm | - | 691 W/m² | - |
| 1777737413 | 21.67° C | 56% | 1022.3 hPa | 0 mm | - | 678 W/m² | - |
| 1777737110 | 20.56° C | 54% | 1022.5 hPa | 0 mm | - | 664 W/m² | - |
| 1777736806 | 20.56° C | 58% | 1022.3 hPa | 0 mm | - | 664 W/m² | - |
| 1777736177 | 21.11° C | 51% | 1022.3 hPa | 0 mm | - | 644 W/m² | - |
| 1777735875 | 20.56° C | 58% | 1022.1 hPa | 0 mm | - | 630 W/m² | - |
| 1777735572 | 20.56° C | 59% | 1022 hPa | 0 mm | - | 619 W/m² | - |
| 1777735269 | 21.11° C | 61% | 1022 hPa | 0 mm | - | 602 W/m² | - |
* Rain latest hour (hover to see other rain measurements)
** Current wind speed in m/s (hover to see current wind gust speed)